Wind_Speed
24 23 23 24 24 23 23 22 22 21 21 20 21 21 20 20 19 18 17 17 16 16 16 15 15 15 14 14 14 14 14 14 15 15 16 16 16 15 15 15 14 15 15 15 14 13 12 11 12 12 12 13 13 14 14 14 15 15 15 14 14 14 14 14 14 14 13 13 12 12 12 11 11 11 11 10 9 9 9 8 7 7 7 7 8
25 25 24 24 25 25 25 24 22 22 22 22 21 21 21 21 20 19 18 18 17 17 17 16 16 16 15 14 14 14 14 14 15 15 15 16 16 15 15 15 15 15 15 15 15 14 13 12 12 12 13 13 14 14 14 14 15 15 15 15 14 14 13 14 14 14 14 13 12 12 11 10 10 11 11 11 10 10 11 10 10 9 9 10 10
27 27 26 25 25 26 26 26 24 23 22 23 23 22 22 22 21 20 20 19 18 18 17 17 17 16 16 15 14 14 14 14 15 15 15 16 15 15 15 15 15 15 15 15 15 14 13 12 12 12 12 13 13 14 14 14 14 14 14 14 14 13 13 13 13 13 13 13 12 11 11 10 10 10 11 10 10 10 11 11 11 10 10 11 12
28 29 28 28 28 27 27 27 26 24 23 24 24 24 24 23 22 21 21 20 20 19 18 17 17 17 17 16 15 15 15 15 15 15 15 16 15 15 15 15 16 16 15 15 15 14 13 13 12 12 12 12 13 14 14 14 14 14 14 13 13 13 13 12 13 13 13 13 12 11 11 11 11 11 11 10 10 10 11 12 12 12 11 12 13
29 29 30 30 30 29 28 27 27 26 26 25 26 25 25 24 23 23 23 22 21 21 19 18 18 18 17 17 16 16 16 15 15 15 15 16 15 15 15 15 16 16 16 16 15 14 13 13 13 12 13 13 13 14 14 14 14 14 14 14 13 13 13 13 13 13 13 13 12 12 12 12 11 11 11 11 11 11 12 12 13 13 13 12 13
30 30 30 31 31 30 30 28 28 28 28 28 28 27 26 26 25 25 24 23 23 22 20 19 19 19 18 18 17 17 16 16 15 15 16 16 16 16 16 15 16 16 17 17 16 15 14 13 13 13 13 13 14 14 14 14 14 14 14 14 14 14 14 13 13 13 13 13 13 12 13 13 13 12 12 12 13 13 13 14 13 13 13 13 13
30 30 31 31 31 31 31 30 29 29 29 30 30 30 28 27 26 26 25 25 24 22 21 21 21 21 20 19 18 17 17 16 16 15 16 17 17 16 16 16 16 16 17 17 17 17 15 14 14 14 14 13 13 13 13 13 13 13 14 13 14 14 14 14 14 14 13 13 13 13 13 13 14 14 12 11 12 13 14 14 14 13 13 13 13
29 30 30 31 31 31 32 32 32 31 31 31 32 32 31 29 28 27 26 26 24 24 23 23 23 22 21 20 19 18 17 17 16 16 17 18 18 18 17 17 16 16 16 17 17 17 17 16 16 15 14 13 13 13 13 13 13 13 13 13 14 14 14 14 14 14 14 14 14 14 13 12 13 13 12 10 10 11 13 14 14 13 12 12 12
29 29 30 30 30 31 32 33 33 33 33 33 33 32 32 32 31 29 28 27 26 25 25 24 24 23 22 22 21 19 18 17 17 17 18 19 19 19 19 18 17 17 17 17 17 17 16 16 16 16 15 14 13 13 13 13 13 13 13 13 14 14 14 14 14 14 14 14 14 14 13 13 14 13 11 10 9 10 12 13 14 13 13 12 12
30 29 29 29 30 31 32 33 34 34 34 34 34 34 33 33 32 31 30 29 28 27 26 25 24 23 23 23 22 20 19 19 19 19 19 20 20 20 20 19 19 18 17 17 17 17 16 16 16 16 15 14 13 13 13 13 13 13 13 13 13 14 14 14 14 14 14 14 15 15 14 14 15 14 13 12 11 11 13 14 15 15 14 14 14
32 30 29 30 31 31 31 32 33 34 35 35 35 35 35 34 34 33 33 32 31 30 28 27 25 24 24 24 23 21 21 21 21 20 20 20 21 22 21 21 20 19 18 18 18 17 17 16 16 16 15 14 14 14 13 13 13 13 13 13 13 13 13 14 14 14 14 14 15 15 15 16 16 16 16 15 14 14 15 17 18 18 18 17 18
35 33 32 32 31 31 31 31 32 32 34 35 36 36 36 35 34 34 33 33 33 32 31 29 28 27 26 25 24 22 22 23 24 23 22 21 22 23 23 23 22 21 20 20 19 19 18 17 16 15 15 15 15 15 14 14 14 14 14 13 13 13 13 14 14 14 14 14 15 15 16 17 17 17 17 17 16 16 17 18 19 20 20 20 21
37 36 35 34 33 32 32 32 31 31 32 33 35 36 36 35 34 34 34 34 34 33 32 31 31 29 28 27 25 24 23 24 25 25 24 23 23 24 24 25 25 24 23 22 21 20 19 18 17 16 16 16 16 16 16 16 16 16 16 15 14 14 14 15 15 15 15 14 14 15 15 16 17 17 17 15 16 16 17 18 19 20 21 22 22
40 39 39 38 36 35 34 33 32 31 31 32 32 33 34 34 34 34 34 33 33 32 32 32 31 31 30 29 28 27 26 26 26 26 26 26 25 25 25 26 27 26 25 24 23 22 21 20 19 18 18 18 17 18 18 18 18 17 17 17 17 16 16 15 16 16 15 14 14 15 15 15 15 17 16 15 15 16 16 17 18 19 20 21 22
43 42 41 41 39 38 36 34 33 32 31 31 30 31 31 32 33 33 33 33 33 32 33 32 32 31 30 30 30 28 28 27 28 27 28 28 28 27 27 27 28 28 28 27 26 25 24 23 22 21 21 20 20 21 21 20 20 19 19 19 19 19 18 17 18 17 16 15 15 16 17 16 16 17 17 17 17 17 17 17 18 20 20 20 21
47 45 44 43 42 40 39 36 34 33 32 30 29 29 30 31 32 33 33 33 33 33 33 32 32 31 31 30 30 29 29 29 29 29 29 30 30 30 28 28 28 28 30 30 29 28 27 26 25 24 24 23 23 23 24 23 22 21 21 22 22 21 20 20 20 19 18 17 16 17 18 18 18 18 19 19 20 20 20 20 20 21 21 20 21
48 48 47 46 45 43 41 39 37 35 33 31 29 29 29 30 31 31 32 32 32 32 32 32 32 31 30 30 29 28 29 30 30 30 30 31 31 30 29 29 29 28 29 31 31 31 30 28 27 27 26 26 26 26 27 26 25 24 24 24 24 23 22 23 23 21 19 18 18 18 18 19 20 20 21 22 23 23 23 22 22 22 22 21 21
49 50 50 49 47 46 44 41 40 38 36 33 30 29 29 29 30 30 30 30 31 31 31 31 30 30 29 29 28 28 29 30 30 30 31 31 31 30 29 29 29 28 29 29 30 31 32 31 31 30 29 29 29 30 30 29 28 27 27 27 26 24 24 27 27 24 21 20 19 20 20 21 22 22 24 25 25 25 24 24 24 23 23 22 22
50 51 53 52 50 49 46 44 42 41 39 36 33 31 29 29 29 29 29 29 29 29 29 29 28 28 28 28 28 28 29 30 30 30 31 31 30 30 29 27 27 27 28 29 29 29 30 32 33 32 31 31 32 33 33 32 31 30 30 30 27 25 27 30 29 26 24 22 22 22 22 22 23 24 25 26 26 25 25 25 24 24 25 25 25
52 51 53 54 53 51 49 47 45 44 42 39 36 34 32 31 30 28 28 28 28 28 28 28 27 27 27 28 28 28 28 30 30 30 30 30 29 29 28 26 25 26 27 28 28 28 29 30 32 33 33 34 35 35 35 35 33 32 32 31 29 28 31 33 31 28 27 25 24 24 23 23 24 24 26 27 27 25 25 24 24 25 26 26 26
55 53 54 56 55 54 52 50 48 46 44 42 40 37 36 34 32 31 30 29 28 27 26 26 26 26 27 27 27 27 28 29 30 30 30 30 29 28 26 25 25 27 27 27 27 28 28 29 29 31 34 35 37 37 38 37 36 35 33 32 31 32 34 34 33 31 30 28 27 27 26 25 25 25 26 27 26 25 24 23 24 25 25 26 26
58 56 55 55 56 56 55 52 50 49 47 45 43 40 39 37 35 34 33 31 29 27 26 25 24 24 25 26 26 27 27 28 29 30 29 29 29 28 26 26 27 28 28 26 26 26 27 28 29 31 33 34 36 38 39 39 39 38 36 34 34 35 35 35 34 33 32 31 30 29 28 28 27 26 26 27 26 25 23 23 24 25 26 26 26
61 60 57 55 56 57 57 55 53 51 50 49 47 45 43 41 39 37 36 33 31 29 27 26 25 24 24 24 24 25 26 27 28 29 29 29 28 27 26 26 28 29 28 26 25 26 27 28 30 31 33 33 34 36 38 39 39 38 38 37 38 38 37 36 35 34 34 33 32 31 30 31 30 29 28 28 27 25 24 24 26 27 27 27 27
64 64 60 56 56 58 59 58 56 54 54 54 52 49 47 44 43 40 38 36 33 31 30 29 28 26 25 24 23 23 23 24 25 26 27 28 27 27 26 27 28 29 28 27 26 27 27 29 31 32 33 33 34 35 37 37 37 37 37 38 39 39 38 38 38 38 37 36 35 34 33 34 34 33 31 30 29 28 28 28 29 30 30 29 28
66 66 63 59 57 58 60 60 59 58 58 58 56 53 50 48 45 42 40 38 35 33 32 32 30 29 27 26 26 25 25 24 23 23 24 25 25 25 26 26 27 27 27 27 28 29 29 30 32 32 32 32 33 35 35 36 36 36 36 37 38 38 38 38 39 40 40 39 38 37 37 37 38 38 36 34 33 32 32 33 33 33 32 31 29
67 67 65 62 60 59 60 62 63 61 59 59 58 55 53 50 47 44 42 40 38 36 35 34 33 32 31 30 29 29 28 27 25 24 24 24 24 24 25 25 26 26 26 27 28 30 31 31 32 33 32 32 32 32 32 33 33 33 33 34 34 35 35 37 38 39 39 40 40 40 40 41 41 41 41 39 38 37 37 37 36 36 35 33 31
68 68 66 64 63 63 61 62 64 64 62 61 60 57 53 50 48 45 43 41 40 39 38 37 37 35 34 34 34 33 33 31 29 27 26 26 26 27 26 26 26 26 26 26 28 30 32 33 34 34 33 32 31 30 30 30 31 30 30 29 29 29 30 32 33 34 35 37 39 40 41 41 41 41 42 42 42 41 41 40 39 38 37 35 32
66 67 67 65 64 65 66 64 64 65 64 63 62 58 54 50 48 46 44 43 43 42 42 41 40 39 38 38 38 37 36 34 31 30 30 30 30 30 30 29 29 29 28 28 30 32 33 34 34 33 32 31 30 29 29 30 30 30 29 28 27 27 27 28 28 28 30 32 35 37 39 40 39 39 40 41 42 42 43 42 41 40 38 36 34
67 64 67 67 64 64 67 68 67 65 65 64 64 61 57 53 50 46 45 46 46 46 46 44 42 41 41 40 39 39 38 36 35 35 35 34 34 33 32 31 31 32 32 33 34 34 33 32 31 31 30 29 29 29 29 29 30 30 29 29 29 28 28 28 27 27 27 29 32 33 36 37 38 38 38 39 40 41 42 42 42 41 39 36 35
74 67 64 66 67 65 65 66 67 66 65 65 64 62 60 57 52 47 47 49 50 50 49 47 45 45 44 41 40 40 40 39 39 39 38 37 37 36 35 34 34 34 36 37 37 35 33 31 30 30 30 29 29 29 29 30 30 30 29 29 30 29 29 29 28 29 29 30 31 32 34 36 37 37 38 38 38 39 41 41 41 41 39 37 36
78 75 67 63 65 68 68 67 66 66 66 67 66 63 60 58 55 51 50 52 53 53 53 51 49 48 47 44 42 41 41 41 42 42 42 41 40 39 38 38 37 38 39 41 40 37 35 33 32 31 31 30 29 29 30 30 31 30 30 31 30 30 29 29 29 31 32 31 32 33 34 35 36 37 37 37 37 39 40 40 41 41 40 38 38
77 78 75 68 64 65 68 70 69 66 66 68 69 66 63 61 59 56 54 54 55 56 55 54 52 51 50 48 46 45 44 43 43 43 45 46 44 43 42 41 41 41 42 42 41 39 37 36 35 34 33 31 30 31 31 32 31 31 31 31 31 30 30 30 31 33 34 33 34 35 35 35 36 36 36 36 37 39 40 41 41 42 41 40 39
75 76 78 76 71 66 65 69 72 71 69 69 69 68 64 62 60 59 58 57 57 58 58 56 55 54 54 53 52 49 47 46 45 44 46 48 48 47 46 45 45 45 45 44 42 40 40 40 39 38 36 34 33 33 33 33 33 33 33 33 32 32 32 32 34 34 34 34 35 36 35 35 35 35 36 36 37 38 40 41 42 43 43 42 40
72 73 76 78 78 74 68 66 70 74 72 70 68 65 62 59 58 58 59 59 59 60 60 58 57 57 57 57 56 54 51 50 49 47 47 48 50 50 49 49 48 48 47 45 44 42 42 42 42 41 41 39 38 37 36 35 35 35 35 35 35 34 34 34 35 36 35 35 37 37 35 35 35 35 35 35 37 38 39 41 43 44 44 42 41
67 69 72 74 75 76 73 69 68 69 69 67 66 63 61 59 58 57 57 58 59 59 60 60 60 60 59 58 58 57 55 53 53 52 51 51 51 51 51 50 49 49 48 47 46 46 46 46 44 44 44 44 43 41 39 38 38 38 37 37 37 37 37 36 36 37 36 37 37 37 37 36 36 35 34 35 36 37 39 41 43 44 44 42 40
64 64 67 68 66 67 70 70 68 66 64 64 63 62 61 61 61 59 56 55 57 57 58 60 61 61 60 59 58 58 58 58 57 55 54 53 53 52 52 51 50 50 49 49 49 50 49 48 47 46 46 47 47 46 44 42 41 40 39 38 38 38 39 39 38 38 38 38 37 37 37 38 37 36 36 35 36 37 39 41 42 43 43 40 40
66 62 61 62 60 59 61 66 69 67 63 61 61 62 62 62 63 63 59 56 56 57 57 58 60 61 60 59 59 59 60 61 60 58 56 56 55 54 53 52 52 52 51 51 52 52 51 51 50 50 49 49 50 50 49 48 46 44 43 41 40 40 41 41 41 41 41 39 38 37 37 38 39 39 38 37 36 37 38 40 42 43 42 40 40
72 66 61 59 58 56 56 60 66 68 65 61 59 60 62 64 66 66 65 62 60 59 59 57 56 56 56 57 59 61 62 62 60 59 59 58 57 56 55 54 54 54 53 52 53 53 53 53 52 51 51 52 52 52 52 52 52 50 49 47 45 42 42 43 43 44 44 42 40 38 37 38 40 41 40 39 38 38 39 41 42 43 42 41 42
79 73 66 60 57 55 53 55 61 65 64 61 60 60 60 63 66 68 67 66 64 62 60 56 52 49 50 52 56 59 61 61 60 60 60 60 60 59 58 57 57 55 55 54 55 54 54 53 52 52 52 53 53 54 54 55 55 55 54 52 50 46 45 45 45 45 45 44 42 40 39 38 40 42 42 41 40 40 41 42 43 44 43 42 44
84 81 75 68 62 57 53 52 56 62 63 62 61 60 59 61 65 67 66 65 65 64 61 56 51 48 48 50 53 56 59 59 59 60 61 61 61 61 61 60 59 57 57 57 57 56 56 55 54 54 54 54 54 54 55 56 56 56 56 56 54 52 50 48 47 47 47 46 44 43 42 40 40 41 43 43 42 43 44 44 43 43 42 42 43
88 86 83 77 71 65 59 53 53 59 63 62 60 59 57 57 61 63 61 59 59 58 56 54 53 51 50 52 53 56 58 58 58 59 60 60 61 62 62 62 60 59 58 58 59 58 56 56 57 57 57 56 55 55 55 56 56 56 57 58 58 56 54 52 51 50 48 47 46 45 43 43 43 43 43 44 45 46 46 45 42 42 42 43 44
88 88 87 84 78 73 68 62 56 56 60 62 61 60 58 56 56 56 56 55 53 51 50 51 53 53 54 55 56 57 58 58 58 58 59 59 59 60 61 61 61 59 58 59 60 58 56 56 58 58 58 58 57 56 56 57 57 58 59 61 61 60 57 55 53 52 50 49 48 47 46 45 45 44 44 45 47 48 49 47 45 44 44 46 48
84 86 87 86 83 79 75 71 64 58 57 61 64 63 61 59 58 57 56 56 54 52 51 51 51 53 54 56 56 57 58 59 59 59 59 59 59 59 60 61 61 60 58 58 58 58 57 57 57 58 58 59 59 58 58 58 59 60 62 65 68 67 63 58 55 55 54 52 51 50 50 49 47 46 46 47 48 50 50 48 46 46 46 48 51
79 82 84 85 85 83 80 77 72 65 59 58 61 63 63 62 61 61 61 60 58 56 54 53 52 52 53 53 55 56 57 58 58 58 58 58 57 57 58 59 61 61 60 59 58 59 59 59 58 57 58 58 58 58 58 59 60 61 65 68 70 70 66 62 59 59 59 57 54 53 53 51 49 48 48 48 50 52 52 50 49 49 49 50 51
72 76 79 80 82 83 81 79 76 73 66 60 59 61 64 65 64 63 63 63 62 59 57 55 54 53 51 50 51 53 55 56 57 57 57 56 55 54 54 55 57 59 60 60 59 59 59 59 58 57 57 57 57 57 58 58 59 60 63 64 65 65 63 60 58 59 60 59 56 54 54 54 52 50 49 49 51 54 54 52 51 51 51 52 51
67 70 74 76 77 80 81 80 78 76 73 68 62 60 62 66 68 67 66 64 63 62 60 57 54 52 49 47 46 48 52 55 56 57 56 55 53 52 51 51 53 55 57 57 57 56 57 58 59 58 57 57 56 56 57 58 58 59 60 60 60 59 58 55 53 54 57 59 59 57 56 55 54 53 52 51 53 56 56 55 53 54 56 57 55
61 65 68 70 73 75 77 78 77 76 75 73 70 65 62 62 64 65 65 64 62 61 60 57 55 52 50 47 45 45 48 51 54 55 55 54 52 50 49 49 50 52 54 54 54 54 55 56 58 59 59 58 57 57 57 58 58 59 60 59 57 54 52 50 50 53 57 61 62 61 59 57 56 55 55 54 54 56 56 56 57 57 56 53 51
56 60 63 65 68 71 72 73 74 74 74 73 72 71 68 65 62 60 59 59 60 59 58 57 56 54 52 50 47 46 46 48 51 53 54 53 51 50 49 49 49 50 51 52 53 53 54 56 57 59 60 60 59 58 59 59 60 60 59 57 55 52 50 50 51 53 56 59 61 61 61 59 56 54 55 55 56 56 57 59 60 59 55 50 48
52 55 58 61 63 66 68 69 70 71 72 71 71 71 71 71 68 64 61 59 59 59 59 58 57 55 54 53 51 49 48 48 49 51 53 54 53 52 51 51 51 50 49 49 49 50 52 54 57 59 60 61 61 60 60 60 61 60 59 57 56 54 53 53 53 54 56 58 59 59 60 59 57 56 57 59 59 60 60 61 59 57 56 54 51
49 51 54 57 59 61 63 65 66 68 68 69 69 70 70 70 71 70 68 65 63 62 61 60 59 58 56 55 54 53 52 50 50 51 53 56 57 57 56 55 54 53 51 49 48 47 49 52 56 58 60 61 62 62 61 61 61 60 60 60 58 56 54 54 55 56 57 59 60 61 63 63 62 60 59 60 61 62 63 63 60 55 53 52 51
46 48 50 52 53 55 58 60 63 64 65 65 66 67 69 69 70 71 71 71 69 67 65 64 63 62 61 59 58 57 56 55 53 53 53 56 59 62 62 60 59 57 55 53 52 50 51 52 55 57 59 60 61 61 62 62 62 62 62 62 61 59 57 57 57 58 59 61 63 64 66 67 66 64 62 62 62 62 63 64 63 60 57 54 54
Wind_Direction
215 215 213 211 211 211 209 205 201 198 198 199 200 198 196 195 195 196 197 199 201 205 210 213 214 214 212 208 206 207 210 214 215 214 212 212 211 210 208 206 205 206 208 209 212 213 211 208 210 210 209 208 207 205 203 206 209 210 210 210 209 207 208 211 214 216 219 222 224 228 234 239 245 252 258 263 265 268 275 289 301 308 318 328 334
214 216 216 214 213 214 215 213 207 202 199 200 202 202 201 200 199 198 200 202 203 206 209 212 214 216 215 211 207 207 209 213 216 216 216 215 214 212 212 211 210 210 211 212 214 217 216 213 213 213 212 211 212 214 213 210 209 210 211 213 215 214 213 215 217 219 223 226 228 231 238 243 249 256 264 271 275 277 282 290 298 305 311 315 318
211 214 215 215 215 215 216 217 214 209 204 203 204 204 204 204 202 201 202 204 205 207 208 210 212 214 216 214 211 209 210 212 215 217 217 217 216 215 215 215 215 215 215 216 217 218 219 218 216 215 215 216 216 217 220 220 218 216 215 215 219 222 223 223 224 225 227 231 233 237 243 248 251 255 263 270 275 278 283 288 293 297 300 302 303
207 211 212 214 216 216 217 217 217 215 212 209 208 207 206 206 204 205 205 205 206 208 208 210 212 214 216 216 214 212 212 213 214 216 217 217 217 217 217 219 220 219 219 221 223 222 220 220 219 218 218 219 219 219 221 222 223 223 222 221 222 226 230 232 233 234 236 239 241 245 251 255 258 261 267 274 276 278 282 288 292 296 299 299 300
205 208 210 212 214 215 217 217 217 217 217 217 215 213 211 208 207 207 207 207 208 208 207 208 211 214 216 218 218 217 216 216 216 216 216 217 217 218 219 221 222 223 222 223 225 226 223 219 219 220 220 219 219 220 221 222 224 225 226 227 227 229 233 237 240 243 246 249 252 255 259 265 271 273 276 282 287 288 291 293 296 299 301 302 304
208 208 209 212 213 215 216 217 218 218 218 219 221 220 217 214 212 210 209 210 210 210 208 208 211 214 218 220 222 222 221 220 220 218 216 216 217 218 219 221 223 223 223 223 224 224 223 219 217 218 220 219 218 218 219 222 225 228 230 232 233 234 238 242 245 248 251 256 260 263 265 270 276 280 282 285 291 296 298 300 303 304 307 311 314
211 210 210 211 213 214 215 216 218 219 219 220 222 223 223 221 218 216 214 213 213 212 210 209 211 215 218 220 224 226 227 226 225 222 218 217 216 217 218 220 221 221 221 222 223 222 221 219 218 218 217 217 218 218 219 221 224 228 230 233 235 237 241 244 247 250 253 258 262 266 269 272 274 279 284 286 289 295 298 301 308 313 315 319 322
212 213 213 212 212 213 215 216 217 218 220 221 222 223 224 225 224 222 220 218 217 216 214 213 214 216 218 220 223 227 229 231 230 227 222 219 218 218 219 219 220 221 221 222 224 224 223 220 218 219 218 217 218 218 219 221 223 226 227 230 234 237 241 243 246 250 253 256 260 264 269 272 273 277 283 287 289 291 294 299 309 318 323 325 328
213 215 216 215 213 214 215 216 217 218 220 222 223 224 225 226 227 227 226 224 222 221 220 218 218 219 220 221 223 226 228 232 234 232 228 224 221 220 220 221 221 222 222 223 225 226 226 224 223 222 220 220 220 220 222 223 225 228 229 231 235 239 243 245 247 250 253 256 260 264 268 272 276 279 280 283 285 286 290 296 302 310 317 321 324
216 217 218 218 216 216 216 216 217 219 220 222 224 225 226 226 228 228 229 229 228 227 226 224 223 223 224 225 225 225 227 230 233 234 232 229 227 225 224 223 223 223 224 225 226 226 227 227 228 228 226 225 224 223 224 225 227 232 233 234 238 242 246 249 251 253 255 257 261 266 269 272 278 283 284 283 282 281 285 289 293 297 302 306 310
218 218 218 219 220 219 219 219 219 220 221 222 224 225 227 228 228 229 230 230 231 231 231 230 228 227 228 230 230 227 227 230 233 234 234 233 231 229 227 227 227 227 226 226 227 228 229 230 232 233 232 232 230 229 229 229 231 235 237 237 239 243 247 251 254 256 258 261 264 269 271 273 278 283 286 287 287 285 284 286 288 291 294 297 300
218 217 217 218 220 222 221 221 221 222 222 224 225 226 227 229 230 231 232 232 232 233 234 234 234 233 233 234 234 232 229 231 234 236 235 234 233 231 230 230 229 230 229 229 229 229 230 232 234 235 236 237 237 235 235 235 235 238 241 240 240 242 245 250 253 256 258 261 264 268 272 276 280 284 288 292 294 292 290 289 290 292 294 295 295
219 218 218 219 220 222 222 221 221 222 223 225 227 228 229 230 231 233 234 235 235 235 236 236 237 237 238 238 238 236 234 234 237 238 237 236 235 232 231 230 230 230 230 231 232 231 231 232 233 236 238 240 240 240 240 240 240 241 242 243 242 242 243 247 252 256 260 263 267 271 275 280 283 287 292 297 298 296 295 295 295 295 295 296 297
221 220 220 221 222 222 221 221 221 221 223 225 227 229 230 232 233 234 235 237 238 238 238 238 238 238 239 239 239 239 238 238 239 240 240 239 238 236 233 232 231 230 230 231 232 233 233 233 232 234 237 240 241 242 241 241 242 242 244 245 246 246 247 249 252 256 261 266 271 274 278 284 287 290 295 300 299 297 297 297 297 297 298 301 304
223 222 222 222 224 223 222 221 222 222 223 224 226 228 230 231 233 235 236 237 238 238 239 239 239 238 238 239 239 239 240 241 241 242 242 242 241 240 237 235 233 231 230 230 231 233 234 234 233 234 236 239 241 242 243 243 244 244 245 245 247 249 250 251 253 256 260 265 271 275 279 285 289 291 295 298 298 297 298 299 298 300 305 309 310
225 224 224 224 225 226 225 223 224 224 225 225 226 227 229 230 232 234 235 236 237 238 240 240 240 240 240 239 239 239 240 241 242 242 243 244 244 243 242 240 238 234 232 231 230 232 234 234 234 234 235 237 240 243 245 245 245 246 246 246 247 249 251 253 254 256 258 262 268 273 277 282 287 290 292 294 295 296 298 300 300 303 308 311 311
228 226 226 226 226 227 227 226 225 226 227 227 227 229 229 230 232 234 235 236 238 239 241 242 243 243 243 243 242 240 240 241 241 242 244 245 246 246 245 244 243 241 238 235 233 232 233 234 235 236 236 238 240 243 245 247 247 248 249 250 250 251 253 256 257 257 259 262 267 271 276 281 285 288 290 291 293 295 297 298 299 302 305 308 308
230 228 227 227 227 228 228 227 227 227 226 226 227 229 231 232 233 234 235 236 238 239 241 243 244 246 247 246 245 243 242 242 243 243 245 247 248 248 248 247 247 247 246 243 240 237 236 235 236 236 237 239 241 242 245 246 247 248 250 252 253 255 257 259 260 261 262 264 267 270 274 278 281 285 287 289 292 295 296 299 301 304 306 307 307
232 230 228 228 228 229 228 227 228 229 227 226 225 226 229 232 233 234 235 236 237 238 240 241 243 244 245 246 245 244 244 245 246 246 247 249 251 252 252 251 251 251 250 250 248 245 242 240 240 239 238 240 242 244 245 247 247 248 251 253 255 258 261 261 262 264 265 265 266 267 269 272 277 280 283 287 291 294 297 300 304 306 308 308 309
233 232 230 229 229 230 229 227 228 230 229 227 225 224 225 228 231 232 233 234 235 235 237 238 240 241 242 243 244 244 244 246 248 249 250 251 253 255 256 256 256 255 253 252 251 251 249 247 245 244 242 242 244 246 248 249 249 249 251 253 255 257 260 262 265 266 267 267 266 265 265 268 271 275 279 283 287 291 294 298 301 302 304 305 307
233 233 231 230 229 229 230 228 227 229 231 229 227 225 225 226 227 229 230 232 233 234 235 236 237 238 240 241 242 243 244 246 248 250 252 254 256 257 259 260 259 257 255 254 254 254 254 253 251 249 247 245 246 249 251 253 254 254 254 256 256 256 258 262 265 267 268 269 268 267 267 268 270 273 277 281 285 289 292 296 298 299 301 303 306
233 232 232 231 231 231 232 231 230 229 231 232 230 228 227 227 227 227 228 230 230 231 233 234 235 235 237 238 240 241 243 244 247 249 250 252 254 256 257 258 258 257 256 255 254 254 254 254 253 252 251 250 250 252 254 256 257 258 259 259 259 259 260 262 264 266 268 270 270 271 271 271 271 273 276 280 284 288 293 296 297 297 298 301 304
232 233 232 231 232 232 232 234 234 232 232 233 232 229 227 227 228 228 229 229 230 230 232 234 235 235 236 237 238 239 241 243 245 247 248 250 251 253 253 254 256 257 257 257 255 253 251 252 252 252 253 253 254 255 256 258 260 261 262 262 262 263 264 265 266 267 268 268 270 272 273 273 273 273 275 279 282 286 292 295 295 294 296 299 302
233 233 232 231 231 231 232 233 234 234 233 233 231 228 225 226 227 229 230 230 229 230 231 234 235 237 238 240 240 239 240 241 243 245 247 248 249 249 250 250 253 256 258 258 257 254 252 251 251 251 252 253 254 257 259 262 264 265 265 264 265 266 268 269 269 269 269 268 268 269 270 272 273 273 274 276 280 284 288 290 291 291 293 296 298
234 234 233 230 229 230 231 233 234 233 233 233 232 228 226 225 226 227 229 231 230 229 231 233 235 237 239 241 243 243 242 241 241 244 246 247 248 248 248 248 250 253 255 256 257 256 255 254 252 252 253 254 256 258 262 265 267 268 268 268 269 271 272 272 271 271 270 270 269 268 267 268 270 272 273 275 278 281 283 286 288 289 290 292 294
234 235 233 230 228 228 230 233 235 235 234 235 235 233 229 226 225 226 227 230 231 230 231 233 235 236 237 239 242 244 244 242 240 241 243 246 247 248 247 247 248 250 251 252 254 255 255 255 255 255 255 255 257 260 264 267 269 271 273 274 275 276 275 274 273 273 273 273 272 271 270 268 268 269 272 274 276 279 281 283 285 286 287 289 291
234 234 233 232 229 227 228 231 235 237 236 235 235 236 233 228 226 227 228 230 231 231 231 232 234 235 236 237 239 242 245 245 243 242 243 245 247 247 247 248 248 248 249 250 251 252 252 253 254 256 257 259 261 264 267 270 273 275 276 277 278 278 277 276 276 275 275 275 274 273 272 271 270 269 270 272 274 277 279 281 281 283 285 287 289
233 233 232 232 231 229 228 230 234 237 238 236 233 233 233 231 228 227 229 231 233 233 232 232 233 235 235 236 238 241 244 246 246 246 245 244 246 247 248 250 251 251 251 250 250 250 251 253 256 259 262 264 266 268 269 271 272 274 275 275 276 275 275 276 276 276 276 275 274 273 273 273 272 271 271 271 273 275 276 277 278 280 282 284 286
235 233 232 232 233 231 230 231 233 236 239 238 234 231 232 232 229 227 229 232 234 235 235 234 234 235 236 237 238 241 243 244 245 246 246 246 247 249 251 253 255 256 256 254 253 253 254 257 260 262 264 265 266 267 268 269 271 272 274 275 275 274 274 275 275 276 275 273 273 272 272 272 272 271 270 270 271 272 273 274 275 277 279 281 282
237 236 233 232 233 232 231 231 233 235 238 239 235 231 232 234 233 230 230 233 234 236 237 237 236 237 237 238 239 241 242 243 244 246 247 248 249 250 252 254 255 256 257 258 258 258 259 260 263 265 266 267 267 267 267 268 270 272 274 275 276 275 275 274 273 273 272 271 272 272 271 271 271 269 268 267 268 269 270 271 273 275 277 278 278
237 238 237 235 234 234 233 232 233 234 237 238 236 233 233 235 234 231 231 233 235 236 237 238 238 239 239 239 239 240 242 242 243 244 246 247 247 248 249 251 252 255 257 260 261 262 263 263 264 266 267 268 269 269 269 269 270 271 273 274 276 278 278 277 274 270 269 270 272 272 272 272 271 271 270 268 266 266 267 268 270 272 274 275 275
237 238 238 238 237 236 235 234 233 234 236 236 234 233 233 234 233 232 232 233 235 237 237 238 238 239 241 241 240 240 241 242 243 243 245 246 246 246 246 247 249 251 254 259 262 265 266 266 265 265 265 267 268 269 270 270 271 272 273 274 276 279 280 279 276 272 271 272 273 273 273 273 273 272 271 269 267 266 266 267 268 269 271 272 273
239 239 239 239 239 240 239 237 235 235 235 234 232 231 231 232 232 232 233 233 235 236 238 238 238 239 241 241 240 240 241 242 243 243 245 246 247 246 245 246 247 249 252 256 260 263 266 267 268 268 267 266 266 267 268 269 271 271 273 275 277 279 280 280 279 278 277 276 275 275 275 275 274 273 272 271 269 267 266 266 267 268 269 271 273
238 240 241 241 241 241 242 240 237 235 233 231 228 227 227 229 230 231 232 234 235 235 236 237 238 239 240 241 241 240 240 241 243 243 245 246 247 247 247 246 247 250 252 254 257 259 262 265 268 270 270 269 268 267 267 268 269 270 272 273 276 277 278 279 280 281 281 280 279 279 278 276 274 273 272 271 269 267 266 266 266 267 268 270 272
235 238 241 243 243 243 242 240 239 235 228 223 223 224 225 227 227 229 231 233 234 235 235 236 238 239 240 242 243 240 238 240 243 244 244 246 247 248 249 250 250 251 252 253 255 256 258 261 263 266 269 271 271 270 268 267 268 269 270 272 274 275 276 278 279 280 280 280 280 280 279 277 275 273 272 270 269 268 267 266 266 266 267 270 273
230 233 237 239 241 242 242 241 240 234 225 221 223 225 226 226 227 227 230 233 233 233 233 235 236 238 239 242 244 240 236 238 242 244 245 246 247 249 251 253 253 253 253 253 255 256 257 258 260 262 265 268 271 272 272 271 270 269 270 271 273 274 276 278 278 279 279 279 280 280 279 277 276 274 272 271 270 269 268 267 266 266 267 269 273
227 226 229 231 232 234 237 239 239 235 227 223 224 226 227 228 228 228 230 232 231 231 232 233 235 236 238 240 242 240 237 238 241 243 244 246 248 250 253 255 255 256 256 256 257 257 258 259 259 261 263 265 268 270 273 274 274 273 273 272 272 274 276 278 278 279 280 281 281 280 278 277 275 274 273 273 272 271 270 269 267 266 265 267 273
228 225 224 226 225 226 229 233 234 231 227 224 226 228 229 230 230 231 232 232 230 230 230 231 233 236 238 239 239 238 237 239 241 243 244 246 248 250 252 254 256 257 259 259 260 261 262 262 262 263 264 265 266 267 269 272 274 274 275 274 273 273 273 275 277 279 280 281 282 281 278 276 274 274 274 274 273 272 272 270 268 267 266 269 277
231 228 226 225 224 224 226 229 229 227 225 226 228 230 231 232 231 232 234 234 231 230 229 229 230 234 238 239 238 237 237 240 244 245 244 245 248 250 252 253 255 257 259 261 262 263 265 266 267 267 266 266 267 267 268 270 272 273 274 275 275 273 272 272 274 276 278 280 281 281 280 276 274 273 273 273 273 273 272 271 270 269 267 272 282
234 231 230 228 227 226 228 230 229 228 228 229 231 234 236 235 232 231 233 233 231 228 227 227 228 232 236 239 240 239 240 244 246 247 246 247 249 251 252 254 255 257 259 261 262 264 266 268 269 269 269 269 269 269 269 270 271 273 274 275 275 274 272 270 269 271 274 276 279 281 281 279 275 272 272 273 273 273 272 272 273 273 271 275 284
236 234 233 232 231 231 231 232 232 231 231 231 233 235 234 231 227 226 227 227 226 225 226 228 230 233 237 240 242 242 243 245 247 248 249 249 250 251 253 254 255 257 258 260 262 263 265 267 268 269 270 270 270 270 270 271 271 272 273 273 274 275 274 271 269 268 270 273 277 280 282 281 278 274 272 272 272 272 273 274 275 276 274 275 282
239 238 236 235 235 235 235 235 236 234 232 231 232 231 228 224 222 221 222 223 224 226 229 232 235 237 239 240 242 243 244 245 246 248 249 250 250 252 253 254 256 257 258 260 262 264 265 266 267 268 269 270 271 271 271 272 272 271 272 272 271 271 271 270 269 268 269 272 277 280 280 280 279 276 273 271 271 272 273 274 275 276 275 275 279
242 241 240 239 238 238 237 237 237 236 233 231 229 226 224 223 223 223 223 223 226 230 233 236 239 241 242 242 242 243 244 245 246 247 248 250 251 252 254 255 257 258 259 261 263 265 265 266 266 267 269 270 271 271 272 272 272 272 271 270 269 269 270 269 269 269 271 273 276 278 278 278 278 277 274 272 271 272 274 274 274 275 275 275 278
244 244 243 243 242 241 241 240 238 237 236 234 231 228 225 224 224 225 226 227 230 234 238 240 242 244 244 244 243 244 245 246 247 247 249 250 252 252 254 255 257 259 261 262 264 265 266 266 266 267 268 270 271 272 273 273 273 273 272 272 273 275 276 274 271 270 270 270 271 273 275 276 276 275 274 274 274 274 274 274 274 274 274 276 277
245 245 245 245 245 244 244 243 241 240 239 239 237 234 231 228 227 227 229 231 234 238 241 243 244 245 244 244 244 246 247 248 248 248 249 251 252 254 255 256 257 259 261 262 263 264 266 267 268 268 269 270 271 272 272 272 273 274 275 277 278 278 277 273 270 268 267 267 268 269 271 273 273 273 273 274 274 273 272 273 273 272 273 275 274
244 245 246 247 247 246 246 246 245 244 242 241 241 238 235 233 233 234 235 237 239 241 243 244 244 243 242 244 248 250 250 250 250 249 249 251 252 254 255 257 258 259 260 260 260 261 264 266 268 269 269 270 270 270 271 271 272 274 276 278 279 279 276 272 269 266 264 265 266 267 270 271 271 271 272 272 270 269 269 270 271 271 272 273 270
240 243 245 246 247 247 248 248 248 247 246 245 244 242 239 237 235 236 237 239 240 241 241 241 240 240 241 245 250 254 255 254 252 250 249 250 251 252 253 255 257 258 259 259 259 260 261 264 266 268 269 270 270 270 271 272 273 274 275 278 281 281 278 275 272 268 266 266 267 268 269 269 269 271 272 271 268 267 266 267 270 272 272 270 265
236 239 242 244 245 246 248 249 250 250 249 248 247 246 245 243 240 237 236 236 237 238 239 238 238 240 242 246 249 253 255 257 255 252 249 248 248 249 249 250 253 255 257 259 260 261 262 263 265 267 269 270 271 271 271 272 272 273 274 276 278 279 277 276 274 270 268 267 268 268 267 267 267 269 270 269 269 268 268 269 272 271 267 266 265
232 235 239 241 243 245 247 249 250 251 251 251 251 250 249 248 247 244 241 238 237 237 237 238 239 242 246 249 250 250 252 254 256 255 251 247 245 244 245 246 248 251 254 257 260 263 265 265 266 267 269 270 270 271 271 271 272 273 274 275 276 275 275 275 273 270 268 269 269 268 266 265 265 267 269 269 269 270 270 272 273 269 264 264 264
228 232 236 238 241 243 245 247 249 250 251 252 253 253 252 251 250 249 247 245 242 240 239 240 242 245 248 251 252 252 251 252 254 256 254 249 244 242 243 246 248 251 254 258 262 266 268 268 268 268 269 270 271 271 271 271 271 272 273 274 274 273 274 274 274 272 271 271 270 268 266 264 263 264 266 267 268 269 268 267 266 262 259 260 261
227 228 232 235 237 239 242 245 247 249 251 252 253 254 254 254 253 252 251 250 248 246 244 244 246 248 250 252 254 255 255 254 254 255 256 253 248 244 244 246 250 253 256 259 263 267 270 271 269 268 269 270 271 271 271 272 272 273 273 274 274 274 274 274 274 272 272 271 271 270 268 266 264 264 265 266 268 268 268 267 264 259 256 260 266
Height
5925 5926 5928 5929 5931 5932 5933 5934 5936 5937 5939 5940 5941 5942 5943 5944 5946 5947 5948 5950 5951 5952 5953 5954 5955 5956 5956 5956 5956 5957 5957 5958 5958 5959 5959 5960 5960 5960 5961 5961 5962 5963 5964 5965 5966 5966 5967 5968 5969 5969 5970 5970 5971 5971 5971 5972 5973 5974 5974 5975 5976 5976 5977 5977 5978 5979 5979 5980 5981 5981 5981 5982 5982 5982 5982 5982 5983 5983 5982 5982 5982 5981 5981 5980 5980
5923 5924 5925 5927 5929 5930 5931 5933 5934 5936 5937 5939 5940 5941 5942 5943 5944 5945 5947 5948 5949 5950 5952 5953 5954 5955 5955 5955 5956 5956 5956 5957 5957 5958 5958 5959 5959 5960 5960 5961 5962 5962 5963 5964 5965 5966 5966 5967 5968 5968 5969 5970 5970 5971 5972 5972 5972 5973 5974 5974 5975 5976 5976 5977 5977 5978 5979 5979 5980 5980 5981 5981 5982 5982 5982 5982 5982 5982 5981 5981 5981 5980 5980 5979 5979
5920 5921 5923 5925 5926 5927 5929 5931 5933 5935 5936 5937 5938 5939 5940 5941 5942 5944 5945 5946 5947 5949 5950 5951 5952 5953 5954 5954 5954 5955 5955 5956 5956 5957 5958 5958 5959 5959 5960 5961 5961 5962 5963 5963 5964 5965 5965 5966 5967 5967 5968 5969 5970 5970 5971 5972 5972 5973 5973 5974 5974 5975 5976 5976 5977 5977 5978 5979 5979 5980 5980 5981 5981 5981 5981 5981 5981 5981 5981 5980 5980 5980 5979 5979 5978
5916 5918 5920 5922 5923 5925 5927 5929 5931 5933 5935 5936 5937 5937 5938 5939 5941 5942 5943 5945 5946 5947 5948 5950 5950 5951 5952 5953 5953 5953 5954 5954 5955 5956 5956 5957 5958 5959 5959 5960 5961 5962 5962 5963 5963 5964 5964 5965 5966 5966 5967 5968 5969 5969 5970 5971 5972 5972 5972 5973 5973 5974 5975 5975 5976 5976 5977 5978 5978 5979 5979 5980 5980 5980 5980 5980 5980 5980 5980 5980 5979 5979 5979 5978 5978
5913 5915 5917 5918 5920 5923 5924 5926 5929 5931 5933 5934 5935 5936 5936 5938 5939 5940 5941 5943 5944 5945 5947 5948 5949 5949 5950 5951 5951 5952 5952 5953 5953 5954 5955 5956 5957 5958 5959 5960 5960 5961 5962 5962 5963 5963 5963 5964 5964 5965 5966 5966 5967 5968 5969 5970 5970 5971 5971 5972 5972 5973 5973 5974 5975 5975 5976 5976 5977 5978 5978 5979 5979 5979 5979 5979 5979 5979 5979 5978 5978 5978 5977 5977 5977
5910 5911 5913 5915 5918 5920 5922 5924 5926 5928 5930 5931 5932 5933 5935 5936 5937 5938 5939 5941 5942 5943 5945 5946 5947 5948 5948 5949 5950 5950 5951 5952 5952 5953 5954 5955 5956 5957 5958 5959 5959 5960 5961 5961 5962 5962 5962 5963 5963 5964 5964 5965 5966 5967 5967 5968 5969 5970 5970 5971 5971 5972 5972 5973 5974 5974 5974 5975 5976 5976 5977 5977 5977 5977 5977 5977 5977 5977 5977 5976 5976 5976 5976 5976 5976
5908 5909 5910 5912 5914 5917 5919 5921 5923 5925 5926 5928 5929 5931 5932 5934 5935 5936 5937 5938 5940 5941 5943 5944 5945 5945 5946 5948 5948 5949 5950 5951 5951 5952 5953 5954 5955 5956 5957 5957 5958 5959 5959 5960 5961 5961 5961 5962 5962 5963 5963 5964 5965 5965 5966 5967 5968 5968 5969 5969 5970 5970 5971 5972 5972 5973 5973 5974 5974 5974 5975 5975 5975 5975 5975 5976 5976 5976 5975 5974 5974 5974 5974 5974 5974
5907 5908 5909 5910 5912 5914 5916 5918 5920 5922 5923 5924 5926 5928 5929 5931 5932 5934 5935 5936 5938 5939 5940 5941 5942 5943 5945 5946 5947 5948 5949 5950 5951 5951 5952 5953 5954 5954 5955 5956 5957 5957 5958 5959 5960 5960 5960 5961 5961 5962 5962 5963 5964 5964 5965 5966 5966 5967 5967 5968 5968 5969 5969 5970 5971 5971 5972 5972 5972 5972 5973 5973 5973 5973 5973 5974 5974 5974 5973 5972 5972 5972 5972 5972 5972
5907 5907 5908 5909 5910 5911 5912 5914 5916 5918 5920 5922 5923 5925 5927 5928 5929 5931 5933 5934 5935 5937 5938 5939 5940 5941 5943 5944 5945 5946 5948 5949 5949 5950 5951 5952 5952 5953 5954 5954 5955 5956 5957 5957 5958 5959 5960 5960 5960 5961 5961 5962 5962 5963 5964 5964 5965 5965 5966 5966 5967 5967 5968 5968 5969 5969 5970 5970 5970 5970 5971 5971 5970 5971 5971 5972 5972 5972 5972 5971 5970 5970 5970 5969 5969
5906 5907 5908 5908 5908 5909 5910 5911 5913 5915 5917 5919 5921 5922 5924 5925 5927 5928 5930 5931 5933 5934 5935 5937 5938 5940 5941 5942 5943 5945 5946 5947 5948 5948 5949 5950 5951 5952 5952 5953 5954 5954 5955 5956 5957 5958 5958 5959 5960 5960 5961 5961 5961 5962 5962 5963 5963 5964 5964 5965 5965 5966 5966 5967 5967 5968 5968 5968 5969 5969 5969 5969 5968 5968 5969 5970 5970 5970 5970 5969 5968 5968 5967 5967 5967
5904 5906 5907 5907 5907 5907 5908 5909 5911 5912 5914 5916 5917 5919 5921 5922 5924 5926 5927 5929 5930 5932 5933 5935 5937 5938 5939 5940 5941 5943 5944 5945 5945 5946 5947 5948 5949 5950 5951 5952 5952 5953 5954 5955 5956 5956 5957 5958 5959 5960 5960 5960 5960 5961 5961 5962 5962 5962 5963 5963 5964 5964 5965 5965 5965 5966 5966 5967 5967 5967 5967 5967 5966 5966 5966 5967 5967 5968 5967 5966 5966 5965 5965 5965 5964
5901 5903 5904 5905 5905 5906 5907 5908 5909 5910 5912 5913 5915 5916 5918 5920 5922 5923 5925 5926 5928 5929 5931 5933 5934 5935 5937 5938 5940 5941 5943 5943 5943 5944 5945 5946 5947 5948 5949 5950 5951 5952 5953 5953 5954 5955 5956 5957 5958 5958 5959 5959 5959 5960 5960 5960 5961 5961 5961 5962 5962 5962 5963 5963 5963 5964 5964 5965 5965 5965 5965 5964 5964 5964 5964 5964 5965 5965 5964 5964 5963 5963 5963 5962 5962
5898 5900 5900 5901 5902 5904 5905 5906 5907 5908 5909 5910 5912 5913 5915 5917 5919 5921 5922 5924 5925 5927 5929 5930 5932 5933 5935 5936 5938 5939 5941 5941 5942 5942 5943 5944 5945 5946 5947 5948 5949 5950 5951 5952 5952 5953 5954 5955 5956 5957 5957 5958 5958 5959 5959 5959 5959 5959 5959 5960 5960 5960 5961 5961 5961 5962 5962 5963 5963 5963 5963 5963 5962 5962 5962 5962 5962 5962 5962 5961 5961 5960 5960 5959 5959
5895 5896 5897 5897 5899 5900 5901 5903 5904 5905 5906 5907 5909 5911 5913 5915 5917 5918 5920 5921 5923 5925 5926 5928 5929 5931 5932 5934 5935 5937 5938 5939 5940 5940 5941 5942 5942 5943 5944 5945 5947 5948 5949 5950 5951 5952 5952 5953 5954 5955 5955 5956 5957 5957 5957 5957 5958 5958 5958 5958 5958 5958 5959 5959 5959 5960 5960 5961 5961 5961 5961 5961 5961 5960 5960 5960 5960 5960 5960 5959 5959 5958 5957 5957 5956
5891 5893 5893 5894 5895 5897 5899 5900 5902 5903 5903 5905 5907 5908 5910 5912 5914 5915 5917 5919 5920 5922 5923 5925 5926 5928 5930 5931 5933 5934 5936 5937 5937 5938 5939 5939 5940 5941 5942 5943 5944 5945 5946 5947 5948 5949 5950 5951 5952 5953 5954 5954 5955 5955 5955 5956 5956 5956 5956 5956 5956 5956 5957 5957 5957 5958 5959 5959 5960 5959 5959 5958 5958 5958 5958 5958 5958 5957 5957 5957 5956 5956 5955 5955 5954
5887 5889 5890 5891 5892 5894 5896 5898 5899 5900 5901 5903 5905 5906 5908 5909 5911 5912 5914 5915 5917 5919 5920 5922 5923 5925 5927 5928 5930 5932 5933 5934 5935 5935 5936 5936 5937 5938 5939 5940 5941 5942 5944 5945 5946 5947 5948 5949 5950 5951 5951 5952 5952 5953 5953 5953 5954 5955 5955 5954 5954 5955 5955 5955 5955 5956 5957 5958 5958 5957 5957 5956 5956 5956 5955 5955 5955 5955 5955 5955 5954 5953 5953 5953 5952
5883 5885 5887 5888 5889 5891 5893 5895 5897 5898 5899 5901 5903 5904 5906 5907 5908 5909 5911 5913 5915 5916 5918 5919 5921 5922 5924 5926 5928 5929 5930 5931 5932 5932 5933 5933 5934 5935 5937 5938 5939 5940 5941 5941 5943 5944 5945 5947 5947 5948 5949 5950 5950 5950 5950 5951 5952 5952 5952 5952 5953 5953 5953 5953 5953 5954 5955 5956 5956 5956 5955 5954 5954 5954 5953 5953 5953 5952 5952 5952 5952 5951 5951 5951 5950
5878 5880 5883 5884 5885 5887 5889 5892 5894 5895 5896 5899 5900 5902 5903 5904 5906 5907 5909 5910 5912 5913 5915 5916 5918 5920 5922 5923 5925 5926 5927 5927 5928 5929 5930 5930 5931 5933 5934 5935 5937 5938 5938 5939 5940 5941 5942 5943 5944 5945 5946 5947 5946 5946 5947 5948 5949 5950 5950 5950 5950 5952 5951 5950 5950 5952 5953 5954 5954 5954 5953 5952 5952 5951 5951 5950 5950 5950 5950 5949 5949 5949 5949 5948 5947
5873 5876 5878 5881 5882 5883 5885 5888 5890 5891 5893 5895 5897 5898 5900 5901 5903 5905 5906 5908 5909 5911 5912 5914 5915 5917 5919 5920 5921 5923 5924 5924 5925 5926 5927 5927 5929 5930 5932 5933 5935 5936 5936 5936 5937 5938 5939 5940 5941 5942 5943 5943 5943 5943 5943 5944 5946 5947 5947 5947 5949 5950 5948 5946 5947 5949 5951 5951 5952 5951 5951 5950 5950 5949 5949 5948 5948 5947 5947 5947 5946 5946 5946 5945 5944
5868 5871 5873 5876 5878 5880 5881 5883 5885 5887 5889 5891 5892 5894 5895 5897 5899 5901 5903 5905 5906 5907 5909 5910 5912 5913 5915 5916 5918 5920 5921 5921 5921 5923 5924 5925 5926 5928 5929 5931 5933 5933 5933 5933 5934 5935 5936 5937 5938 5939 5940 5940 5939 5940 5940 5941 5942 5943 5944 5945 5947 5947 5945 5943 5945 5947 5948 5949 5949 5949 5948 5948 5947 5947 5946 5946 5945 5945 5945 5945 5944 5944 5943 5942 5941
5862 5865 5868 5871 5874 5876 5877 5879 5881 5883 5885 5888 5889 5890 5891 5893 5895 5897 5899 5901 5903 5905 5906 5907 5909 5910 5911 5913 5914 5916 5917 5918 5918 5919 5920 5922 5923 5925 5927 5929 5929 5929 5929 5930 5931 5932 5933 5934 5934 5935 5935 5935 5936 5936 5936 5937 5938 5939 5941 5943 5944 5943 5942 5942 5943 5944 5945 5946 5946 5945 5946 5945 5945 5944 5944 5943 5943 5943 5943 5942 5942 5941 5940 5939 5938
5856 5858 5861 5866 5870 5872 5874 5875 5877 5879 5881 5883 5884 5886 5887 5888 5890 5892 5894 5897 5899 5901 5903 5904 5905 5907 5908 5909 5910 5912 5913 5914 5915 5916 5917 5918 5919 5921 5923 5925 5924 5924 5925 5927 5928 5929 5930 5930 5931 5930 5930 5931 5931 5931 5932 5933 5933 5935 5937 5939 5939 5939 5939 5939 5940 5941 5942 5942 5942 5942 5942 5942 5941 5941 5941 5940 5940 5940 5940 5940 5939 5938 5937 5936 5935
5850 5852 5855 5860 5864 5867 5869 5871 5873 5875 5876 5876 5877 5879 5880 5882 5884 5887 5889 5892 5895 5897 5899 5901 5902 5903 5904 5906 5907 5908 5909 5910 5911 5912 5913 5914 5915 5917 5919 5920 5919 5920 5921 5923 5924 5925 5926 5926 5926 5926 5926 5927 5928 5927 5928 5928 5929 5931 5933 5934 5935 5935 5935 5936 5937 5938 5938 5938 5939 5939 5939 5938 5938 5938 5938 5937 5937 5937 5938 5937 5936 5935 5934 5933 5932
5842 5845 5850 5855 5858 5860 5863 5865 5867 5868 5869 5868 5870 5872 5873 5874 5877 5880 5884 5888 5891 5893 5895 5897 5898 5900 5901 5902 5904 5904 5905 5906 5907 5908 5909 5910 5911 5912 5914 5915 5915 5916 5917 5919 5920 5920 5921 5921 5921 5921 5922 5923 5924 5924 5924 5924 5925 5927 5929 5929 5929 5930 5931 5932 5933 5933 5934 5934 5935 5936 5935 5934 5934 5934 5934 5934 5934 5934 5934 5934 5933 5932 5931 5930 5929
5835 5838 5843 5849 5852 5854 5856 5858 5859 5860 5861 5862 5865 5868 5869 5869 5870 5874 5878 5883 5886 5889 5891 5893 5895 5897 5898 5899 5900 5901 5902 5903 5903 5904 5905 5906 5906 5907 5909 5910 5911 5912 5914 5915 5915 5915 5916 5916 5916 5916 5918 5919 5920 5920 5921 5921 5922 5924 5924 5924 5925 5926 5927 5928 5928 5928 5929 5929 5930 5931 5931 5931 5930 5929 5929 5930 5930 5930 5930 5930 5929 5928 5927 5926 5925
5828 5831 5836 5842 5846 5848 5850 5851 5851 5854 5857 5859 5862 5865 5866 5866 5866 5868 5872 5877 5881 5885 5887 5889 5891 5893 5894 5895 5897 5897 5898 5899 5900 5901 5901 5902 5903 5903 5904 5905 5906 5907 5909 5910 5911 5911 5911 5911 5911 5912 5914 5915 5916 5917 5918 5918 5919 5920 5920 5921 5922 5922 5923 5923 5923 5923 5924 5924 5925 5925 5926 5925 5925 5925 5925 5925 5925 5925 5925 5925 5924 5924 5923 5922 5922
5820 5824 5829 5834 5838 5841 5844 5845 5845 5847 5851 5853 5856 5860 5863 5864 5863 5864 5867 5872 5876 5880 5882 5884 5886 5888 5890 5891 5892 5893 5894 5896 5897 5898 5899 5899 5899 5899 5899 5900 5901 5902 5904 5906 5906 5906 5906 5907 5907 5909 5910 5912 5913 5914 5915 5915 5915 5916 5917 5917 5918 5918 5918 5918 5918 5918 5919 5919 5919 5919 5919 5919 5919 5920 5920 5920 5920 5920 5920 5919 5919 5919 5918 5918 5917
5812 5816 5821 5825 5830 5834 5837 5838 5839 5841 5844 5847 5850 5854 5859 5861 5860 5860 5863 5866 5870 5874 5877 5879 5881 5884 5885 5886 5887 5888 5891 5893 5895 5895 5895 5895 5895 5895 5896 5897 5897 5898 5900 5900 5900 5901 5902 5904 5905 5907 5908 5909 5910 5910 5911 5911 5911 5912 5912 5912 5913 5913 5913 5913 5913 5914 5914 5914 5913 5913 5913 5913 5913 5914 5914 5914 5915 5915 5914 5914 5914 5914 5914 5914 5913
5804 5808 5812 5817 5822 5826 5830 5832 5833 5835 5837 5840 5844 5848 5852 5854 5855 5856 5858 5861 5865 5868 5871 5874 5877 5878 5880 5881 5883 5885 5887 5890 5890 5890 5891 5891 5892 5892 5893 5894 5894 5895 5895 5895 5895 5896 5899 5901 5903 5905 5905 5906 5906 5906 5907 5907 5907 5907 5908 5908 5908 5908 5909 5909 5909 5909 5909 5908 5908 5908 5908 5907 5907 5908 5908 5909 5909 5910 5909 5909 5909 5909 5909 5909 5909
5795 5799 5804 5808 5813 5818 5822 5825 5827 5829 5831 5833 5837 5841 5844 5847 5848 5850 5853 5856 5859 5862 5865 5869 5871 5873 5874 5877 5880 5881 5883 5885 5885 5886 5887 5888 5888 5889 5889 5890 5890 5890 5890 5889 5890 5893 5896 5899 5901 5901 5902 5902 5903 5903 5903 5903 5903 5903 5903 5903 5903 5903 5904 5904 5905 5904 5903 5903 5903 5903 5902 5902 5902 5902 5902 5903 5904 5904 5904 5904 5904 5904 5904 5905 5904
5787 5791 5795 5799 5804 5809 5813 5817 5819 5822 5824 5826 5830 5834 5837 5840 5842 5845 5848 5851 5854 5857 5860 5863 5866 5867 5870 5873 5875 5876 5878 5879 5880 5881 5881 5882 5883 5884 5884 5884 5884 5884 5884 5884 5886 5890 5893 5895 5897 5898 5898 5899 5899 5899 5899 5899 5899 5899 5899 5899 5899 5899 5899 5900 5899 5898 5898 5898 5898 5898 5897 5897 5896 5896 5897 5898 5899 5899 5899 5899 5899 5899 5899 5899 5898
5779 5782 5786 5790 5795 5800 5804 5808 5812 5815 5817 5820 5823 5827 5831 5833 5836 5840 5843 5846 5849 5852 5855 5858 5860 5862 5864 5867 5869 5871 5872 5873 5874 5875 5875 5876 5877 5878 5879 5879 5879 5879 5879 5879 5882 5885 5888 5890 5891 5892 5893 5894 5895 5895 5895 5895 5895 5895 5895 5895 5895 5895 5895 5895 5894 5893 5893 5894 5894 5893 5892 5892 5891 5891 5891 5892 5893 5893 5893 5894 5894 5893 5893 5894 5893
5771 5774 5778 5782 5786 5791 5795 5799 5803 5806 5810 5813 5816 5820 5824 5827 5830 5833 5836 5840 5843 5846 5849 5852 5854 5856 5858 5860 5862 5864 5866 5867 5868 5870 5870 5870 5871 5872 5873 5874 5874 5874 5874 5876 5878 5880 5882 5883 5884 5886 5888 5889 5890 5890 5890 5890 5890 5891 5890 5890 5891 5891 5891 5890 5889 5889 5889 5890 5889 5888 5888 5887 5886 5886 5886 5887 5887 5888 5888 5888 5888 5887 5888 5888 5889
5764 5767 5770 5773 5778 5783 5787 5791 5793 5796 5800 5805 5809 5813 5817 5820 5823 5826 5829 5833 5836 5839 5842 5845 5847 5849 5851 5853 5856 5858 5860 5861 5862 5864 5864 5864 5864 5865 5866 5868 5869 5869 5871 5872 5875 5876 5876 5877 5878 5880 5881 5883 5884 5884 5885 5885 5885 5886 5886 5886 5886 5886 5885 5885 5884 5884 5885 5885 5884 5884 5883 5883 5881 5881 5881 5881 5881 5882 5882 5882 5882 5881 5882 5883 5883
5756 5760 5762 5766 5770 5774 5779 5783 5786 5788 5792 5797 5801 5805 5809 5812 5815 5818 5822 5826 5829 5833 5836 5838 5840 5842 5845 5847 5849 5851 5853 5854 5855 5857 5857 5857 5858 5858 5860 5862 5864 5865 5867 5868 5870 5870 5870 5871 5873 5874 5875 5876 5877 5878 5880 5880 5880 5880 5881 5881 5881 5880 5880 5880 5880 5880 5880 5880 5880 5879 5879 5878 5876 5876 5875 5876 5876 5876 5877 5876 5876 5875 5875 5876 5878
5748 5752 5755 5759 5763 5766 5770 5774 5778 5781 5785 5789 5793 5797 5801 5804 5807 5811 5815 5819 5822 5826 5829 5831 5833 5835 5838 5841 5843 5844 5846 5847 5848 5850 5851 5852 5852 5853 5854 5856 5858 5860 5862 5863 5864 5864 5864 5866 5867 5868 5869 5869 5870 5871 5872 5874 5875 5875 5876 5876 5876 5875 5875 5875 5875 5874 5874 5875 5875 5875 5874 5873 5872 5870 5870 5870 5871 5871 5871 5870 5870 5869 5869 5871 5872
5739 5744 5748 5751 5755 5759 5762 5766 5770 5774 5778 5782 5786 5789 5793 5797 5800 5804 5808 5812 5815 5818 5821 5824 5826 5828 5832 5834 5835 5836 5838 5840 5842 5843 5845 5846 5847 5848 5849 5851 5852 5854 5856 5857 5858 5858 5859 5860 5862 5863 5864 5864 5864 5864 5865 5866 5867 5869 5870 5870 5870 5871 5870 5869 5869 5869 5869 5869 5869 5870 5869 5868 5867 5865 5864 5865 5865 5865 5865 5864 5863 5863 5863 5865 5865
5730 5735 5739 5743 5747 5751 5755 5758 5762 5766 5770 5774 5778 5782 5785 5789 5793 5796 5800 5804 5807 5810 5813 5816 5819 5821 5825 5827 5827 5828 5830 5833 5835 5837 5838 5840 5841 5843 5844 5845 5846 5847 5849 5851 5851 5852 5853 5855 5857 5858 5859 5859 5859 5859 5859 5859 5860 5861 5862 5863 5864 5865 5865 5864 5863 5863 5862 5862 5863 5863 5863 5863 5862 5860 5859 5859 5859 5860 5859 5858 5857 5857 5857 5858 5858
5721 5726 5730 5735 5739 5743 5746 5750 5754 5758 5762 5766 5770 5773 5777 5781 5784 5788 5792 5796 5799 5803 5806 5809 5811 5815 5817 5819 5819 5821 5823 5826 5828 5830 5832 5833 5834 5836 5837 5838 5840 5841 5843 5844 5844 5846 5847 5848 5850 5852 5852 5853 5853 5854 5854 5853 5853 5854 5855 5855 5856 5858 5858 5858 5857 5857 5856 5856 5856 5856 5857 5857 5857 5855 5854 5853 5853 5854 5852 5851 5851 5851 5852 5852 5852
5712 5716 5721 5726 5730 5734 5738 5742 5746 5750 5754 5758 5762 5766 5769 5772 5776 5780 5784 5788 5792 5795 5798 5802 5805 5808 5811 5812 5813 5814 5817 5819 5821 5823 5825 5826 5828 5829 5831 5832 5834 5835 5836 5837 5837 5839 5840 5841 5843 5844 5845 5846 5847 5848 5847 5847 5847 5848 5848 5847 5848 5850 5851 5851 5850 5850 5850 5850 5850 5850 5850 5851 5851 5850 5849 5848 5848 5847 5845 5844 5845 5846 5846 5847 5847
5702 5706 5711 5716 5721 5726 5730 5734 5738 5743 5747 5751 5755 5759 5762 5765 5768 5772 5776 5780 5784 5788 5791 5795 5799 5802 5804 5806 5807 5808 5810 5813 5815 5816 5817 5819 5821 5823 5824 5825 5827 5829 5829 5830 5830 5832 5834 5835 5835 5836 5837 5838 5839 5840 5840 5840 5840 5841 5840 5840 5840 5841 5843 5844 5844 5843 5843 5843 5843 5844 5844 5845 5845 5845 5844 5843 5842 5841 5839 5838 5839 5840 5840 5840 5840
5692 5696 5701 5707 5712 5717 5721 5726 5730 5735 5740 5745 5748 5752 5755 5758 5761 5765 5769 5773 5777 5781 5785 5788 5792 5795 5797 5799 5800 5802 5803 5806 5808 5809 5811 5812 5814 5816 5817 5818 5820 5821 5822 5823 5823 5824 5826 5828 5828 5829 5830 5830 5831 5832 5832 5832 5832 5833 5833 5832 5830 5831 5833 5836 5837 5837 5837 5837 5837 5838 5838 5838 5838 5839 5839 5838 5836 5834 5833 5832 5833 5833 5834 5833 5832
5682 5687 5692 5697 5703 5708 5713 5717 5722 5727 5732 5737 5741 5744 5747 5751 5755 5758 5762 5766 5769 5773 5777 5781 5784 5787 5790 5792 5793 5795 5796 5798 5800 5802 5804 5805 5807 5809 5810 5811 5812 5814 5815 5816 5816 5817 5818 5819 5820 5821 5822 5822 5823 5824 5824 5823 5824 5824 5823 5821 5819 5821 5826 5830 5831 5831 5830 5830 5830 5830 5830 5830 5831 5832 5833 5832 5831 5828 5827 5826 5826 5826 5826 5826 5824
5673 5678 5683 5688 5694 5699 5704 5709 5714 5718 5723 5727 5732 5735 5739 5743 5747 5751 5754 5758 5762 5765 5769 5773 5776 5779 5782 5784 5786 5787 5789 5791 5793 5795 5796 5798 5800 5802 5803 5804 5805 5807 5808 5809 5810 5810 5810 5810 5811 5813 5815 5815 5815 5816 5815 5815 5814 5814 5812 5812 5813 5817 5822 5825 5825 5824 5822 5821 5821 5821 5821 5822 5824 5825 5825 5826 5825 5822 5821 5821 5820 5819 5819 5818 5817
5665 5670 5675 5679 5685 5690 5695 5699 5705 5710 5714 5718 5723 5726 5730 5735 5739 5743 5746 5750 5754 5758 5762 5765 5769 5772 5774 5777 5779 5780 5782 5783 5785 5787 5788 5791 5793 5795 5797 5798 5799 5800 5801 5802 5802 5802 5802 5802 5803 5805 5807 5808 5808 5807 5806 5806 5805 5804 5803 5804 5807 5809 5810 5812 5813 5813 5812 5811 5812 5812 5812 5813 5815 5817 5818 5819 5818 5816 5814 5814 5814 5813 5812 5812 5811
5657 5662 5666 5671 5676 5681 5686 5690 5695 5701 5706 5710 5714 5718 5722 5727 5730 5734 5739 5743 5746 5750 5754 5758 5761 5764 5766 5769 5771 5773 5774 5776 5778 5780 5781 5783 5786 5788 5790 5791 5792 5792 5793 5794 5795 5796 5796 5796 5796 5797 5799 5800 5800 5800 5799 5798 5797 5797 5796 5797 5798 5799 5799 5800 5801 5802 5802 5802 5802 5803 5804 5804 5806 5808 5810 5810 5810 5808 5807 5807 5807 5806 5805 5804 5804
5649 5654 5658 5663 5668 5672 5677 5681 5686 5691 5697 5702 5706 5710 5715 5719 5723 5727 5731 5735 5739 5742 5746 5749 5753 5755 5758 5761 5763 5765 5767 5769 5771 5773 5775 5777 5779 5781 5782 5783 5785 5785 5786 5787 5787 5788 5789 5790 5790 5790 5790 5791 5791 5792 5791 5790 5789 5789 5789 5789 5790 5791 5792 5792 5793 5793 5794 5793 5793 5794 5794 5795 5797 5799 5800 5800 5800 5800 5800 5800 5799 5799 5798 5797 5797
5641 5646 5650 5655 5660 5664 5669 5673 5677 5682 5687 5693 5698 5702 5706 5711 5715 5719 5723 5727 5731 5734 5737 5741 5744 5747 5750 5753 5755 5757 5759 5761 5763 5765 5768 5770 5771 5773 5774 5776 5777 5778 5778 5779 5780 5781 5782 5783 5783 5782 5782 5782 5783 5783 5783 5782 5781 5781 5781 5782 5782 5784 5785 5785 5785 5784 5784 5783 5784 5784 5785 5786 5788 5790 5791 5791 5791 5791 5791 5791 5791 5791 5791 5791 5791
5634 5638 5643 5647 5652 5657 5661 5665 5669 5673 5678 5683 5688 5693 5697 5702 5706 5711 5715 5718 5722 5725 5729 5732 5735 5739 5741 5744 5747 5750 5752 5754 5756 5758 5760 5762 5763 5765 5766 5768 5769 5770 5771 5771 5772 5773 5774 5775 5775 5775 5774 5774 5775 5775 5774 5774 5774 5773 5773 5773 5774 5776 5777 5777 5776 5775 5774 5774 5774 5775 5775 5777 5779 5780 5781 5781 5781 5782 5781 5781 5781 5781 5782 5782 5783
5626 5630 5634 5639 5644 5649 5653 5657 5661 5665 5670 5675 5679 5684 5689 5693 5698 5702 5706 5710 5713 5717 5720 5723 5727 5730 5733 5736 5739 5742 5744 5746 5748 5750 5752 5754 5755 5757 5758 5760 5761 5762 5763 5764 5765 5766 5766 5767 5767 5767 5766 5766 5766 5766 5766 5765 5765 5765 5765 5765 5765 5767 5768 5768 5767 5766 5766 5765 5764 5764 5764 5765 5768 5770 5771 5771 5771 5771 5770 5770 5771 5772 5772 5773 5774
5619 5622 5626 5631 5636 5641 5645 5649 5654 5658 5663 5667 5671 5675 5680 5684 5689 5693 5697 5701 5705 5708 5711 5714 5718 5721 5724 5727 5731 5733 5736 5738 5740 5742 5744 5745 5747 5749 5750 5751 5753 5754 5755 5756 5757 5758 5758 5759 5759 5759 5758 5758 5758 5758 5757 5757 5757 5757 5757 5757 5757 5759 5760 5760 5759 5759 5757 5755 5754 5753 5753 5754 5756 5759 5760 5760 5761 5760 5759 5759 5760 5762 5763 5764 5764